[[{"header":{"parameterUnit":"m.s-1","parameterCategory":2,"la1":30.2991,"la2":30.254,"lo1":-89.0895,"lo2":-89.0444,"dy":0.0017,"dx":0.0017,"nx":28,"ny":28,"refTime":"2023-10-18T09:00:00:Z","depth":"0","parameterNumber":2,"parameterNumberName":"U-component_of_CURRENTS"},"data":[0,0,0,0,0,0,0,0,0,0,0,0,0,0,0,0,0,0,0,0,0,0,0,0,0,0,0,0,0,0,0,0,0,0,0,0,0,0,0,0,0,0,0,0,0,0,0,0,0,0,0,0,0,0,0,0,0,0,-0.3112,-0.3113,0,-0.3205,-0.3205,-0.3206,-0.3204,-0.3204,-0.3203,-0.3203,-0.3187,-0.3187,-0.3187,0,0,0,0,0,0,0,0,0,0,0,0,0,-0.28,-0.2806,-0.3112,-0.3114,-0.3116,-0.3205,-0.3205,-0.3206,-0.3204,-0.3204,-0.3203,-0.3203,-0.3187,-0.3187,-0.3187,0,0,0,0,0,0,0,0,0,0,0,0,0,-0.2911,-0.2808,-0.3111,-0.3132,-0.3135,-0.3205,-0.3205,-0.3206,-0.3205,-0.3204,-0.3203,-0.3202,-0.3187,-0.3187,-0.3187,-0.3203,0,0,-0.3188,-0.3188,0,0,0,0,0,0,0,0,-0.2905,-0.2922,-0.3127,-0.313,-0.3134,-0.3199,-0.309,-0.3202,-0.3205,-0.3169,-0.3203,-0.3202,-0.3187,-0.3187,-0.3196,-0.3202,-0.3201,-0.3188,-0.3188,-0.3188,-0.3188,0,0,0,0,0,0,0,-0.2898,-0.2917,-0.314,-0.3129,-0.3134,-0.3091,-0.3107,-0.3111,-0.3173,-0.3172,-0.3175,-0.3198,-0.3187,-0.3196,-0.3196,-0.3201,-0.3188,-0.3188,-0.3188,-0.3188,-0.3143,-0.3141,0,0,0,0,0,0,-0.2912,-0.2912,-0.3138,-0.3144,-0.3025,-0.3099,-0.3115,-0.3173,-0.3175,-0.3178,-0.3199,-0.3198,-0.3197,-0.3196,-0.3195,-0.3149,-0.3188,-0.3188,-0.3188,-0.3144,-0.3142,-0.3141,0,0,0,0,0,0,-0.2905,-0.2933,-0.3134,-0.3033,-0.3057,-0.3107,-0.317,-0.3175,-0.3185,-0.3198,-0.3197,-0.3204,-0.3196,-0.3195,-0.3184,-0.3151,-0.3188,-0.3188,-0.3145,-0.3143,-0.3142,-0.3098,0,0,0,0,0,0,-0.2897,-0.293,-0.2947,-0.3036,-0.3064,-0.3166,-0.3172,-0.3178,-0.3205,-0.3204,-0.3203,-0.3201,-0.3195,-0.3184,-0.3184,-0.3151,-0.3188,-0.3147,-0.3144,-0.3142,-0.3101,-0.3095,-0.3089,0,0,0,0,0,-0.2885,-0.2892,-0.2948,-0.2973,-0.3097,-0.3167,-0.3176,-0.3201,-0.3206,-0.3206,-0.32,-0.3201,-0.3168,-0.3183,-0.3184,-0.315,-0.3148,-0.3145,-0.3142,-0.3103,-0.3096,-0.309,0,0,0,0,0,0,-0.274,-0.2898,-0.2958,-0.301,-0.3092,-0.317,-0.3157,-0.3204,-0.3203,-0.3187,-0.3198,-0.3195,-0.3157,-0.3171,-0.3188,-0.3129,-0.3153,-0.315,-0.3123,-0.3116,-0.3111,-0.3047,-0.3188,0,0,0,0,0,-0.2733,-0.2786,-0.2933,-0.2964,-0.301,-0.3093,-0.3117,-0.3155,-0.3185,-0.3185,-0.3194,-0.3181,-0.3149,-0.3149,-0.3123,-0.3118,-0.3089,-0.3092,-0.3086,-0.3081,-0.3028,-0.2977,-0.2961,-0.3132,-0.3132,-0.3132,0,0,-0.2681,-0.2773,-0.28,-0.2938,-0.2993,-0.303,-0.3101,-0.314,-0.3139,-0.3181,-0.3151,-0.3156,-0.3137,-0.3103,-0.309,-0.3115,-0.3022,-0.3078,-0.3074,-0.3022,-0.2972,-0.2956,-0.2941,-0.313,-0.313,-0.3131,0,0,-0.2595,-0.2698,-0.2719,-0.2788,-0.2897,-0.2959,-0.2979,-0.308,-0.3088,-0.3101,-0.3097,-0.3083,-0.3082,-0.3048,-0.303,-0.2984,-0.298,-0.2993,-0.293,-0.2883,-0.2867,-0.2854,-0.2815,-0.2798,-0.3008,-0.3008,-0.3008,0,-0.2529,-0.2602,-0.2723,-0.2755,-0.2795,-0.2927,-0.2945,-0.2971,-0.3044,-0.3043,-0.3074,-0.3033,-0.3034,-0.2959,-0.2937,-0.2964,-0.2946,-0.2962,-0.2873,-0.2859,-0.2845,-0.2809,-0.2791,-0.3006,-0.3006,-0.3006,-0.3006,0,-0.2477,-0.2528,-0.2533,-0.2638,-0.2682,-0.272,-0.2813,-0.2839,-0.2888,-0.2924,-0.289,-0.29,-0.2881,-0.2883,-0.2892,-0.2801,-0.2821,-0.286,-0.2889,-0.2825,-0.2792,-0.2774,-0.3002,-0.3003,-0.3004,-0.3004,0,0,-0.2381,-0.2487,-0.2491,-0.2532,-0.2638,-0.2683,-0.2669,-0.2727,-0.2727,-0.2762,-0.2742,-0.2691,-0.2733,-0.2711,-0.2738,-0.2698,-0.2608,-0.2739,-0.2737,-0.2695,-0.2505,-0.2433,-0.2408,-0.2643,-0.264,-0.2636,-0.2527,0,-0.2324,-0.2358,-0.2419,-0.2435,-0.2479,-0.257,-0.2558,-0.2602,-0.2647,-0.2656,-0.2651,-0.2638,-0.2659,-0.2674,-0.2623,-0.2623,-0.2554,-0.2633,-0.2574,-0.2571,-0.2511,-0.2381,-0.2271,-0.2155,-0.251,-0.2507,-0.2504,0,-0.2276,-0.2318,-0.2328,-0.2398,-0.2422,-0.2427,-0.2477,-0.2488,-0.2507,-0.2538,-0.252,-0.2548,-0.2488,-0.2531,-0.243,-0.249,-0.2456,-0.2447,-0.2444,-0.2363,-0.2462,-0.2271,-0.2109,-0.2102,-0.2476,-0.2479,-0.2481,0,-0.2202,-0.2259,-0.227,-0.2295,-0.2377,-0.2374,-0.2409,-0.2443,-0.2461,-0.2466,-0.2487,-0.2434,-0.2429,-0.2366,-0.2351,-0.2394,-0.2239,-0.2318,-0.2198,-0.2196,-0.2073,-0.2064,-0.1877,-0.2175,-0.2175,-0.2175,-0.2176,0,-0.2155,-0.2164,-0.2239,-0.2254,-0.2256,-0.2326,-0.2327,-0.2355,-0.239,-0.239,-0.2423,-0.2399,-0.2383,-0.2327,-0.2299,-0.2175,-0.2196,-0.2113,-0.2129,-0.2058,-0.205,-0.2018,-0.2066,-0.2171,-0.2172,-0.2173,-0.2174,0,-0.2072,-0.213,-0.2144,-0.2208,-0.2226,-0.2223,-0.2289,-0.2312,-0.2345,-0.2343,-0.2345,-0.2354,-0.227,-0.2237,-0.2143,-0.2104,-0.1965,-0.1957,-0.1874,-0.1879,-0.1765,-0.1816,-0.1627,-0.1584,-0.1797,-0.1794,-0.1792,0,-0.2031,-0.2034,-0.2085,-0.2107,-0.2132,-0.2159,-0.2198,-0.2266,-0.2298,-0.2302,-0.2298,-0.2228,-0.2138,-0.1981,-0.1891,-0.1774,-0.1816,-0.1629,-0.1658,-0.1662,-0.1734,-0.1798,-0.1782,-0.1501,-0.1496,-0.1493,-0.149,0,-0.1937,-0.1951,-0.1973,-0.2007,-0.2047,-0.2071,-0.2124,-0.2127,-0.2198,-0.2157,-0.2065,-0.1979,-0.1874,-0.1687,-0.158,-0.1518,-0.1588,-0.1545,-0.1555,-0.1441,-0.1487,-0.1488,-0.1704,-0.1456,-0.1459,-0.1462,-0.1463,-0.1465,-0.1848,-0.1835,-0.1867,-0.1887,-0.1929,-0.1917,-0.1823,-0.1873,-0.18,-0.1621,-0.1753,-0.1491,-0.1525,-0.1334,-0.1292,-0.1205,-0.1305,-0.118,-0.1231,-0.1289,-0.1241,-0.1369,-0.1147,-0.1149,-0.115,-0.1151,-0.1153,0,-0.1747,-0.1744,-0.1757,-0.1727,-0.1674,-0.1753,-0.1724,-0.1577,-0.1348,-0.1243,-0.1071,-0.0951,-0.0897,-0.0948,-0.0966,-0.0918,-0.0936,-0.092,-0.0984,-0.0976,-0.1064,-0.1046,-0.0783,-0.0783,-0.0783,-0.0783,-0.0783,-0.0783,-0.17,-0.1669,-0.1671,-0.1486,-0.1437,-0.1247,-0.115,-0.0959,-0.0809,-0.0456,-0.0252,-0.0205,-0.0483,-0.0783,-0.084,-0.081,-0.0836,-0.079,-0.0862,-0.0948,-0.0977,-0.1006,-0.0996,-0.0726,-0.0727,-0.0717,-0.0717,-0.0717]},{"header":{"parameterUnit":"m.s-1","parameterCategory":2,"la1":30.2991,"la2":30.254,"lo1":-89.0895,"lo2":-89.0444,"dy":0.0017,"dx":0.0017,"nx":28,"ny":28,"refTime":"2023-10-18T09:00:00:Z","depth":"0","parameterNumber":3,"parameterNumberName":"V-component_of_CURRENTS"},"data":[0,0,0,0,0,0,0,0,0,0,0,0,0,0,0,0,0,0,0,0,0,0,0,0,0,0,0,0,0,0,0,0,0,0,0,0,0,0,0,0,0,0,0,0,0,0,0,0,0,0,0,0,0,0,0,0,0,0,0.0037,0.0039,0,0.023,0.0233,0.0235,0.0358,0.0359,0.0359,0.036,0.0567,0.0572,0.0577,0,0,0,0,0,0,0,0,0,0,0,0,0,-0.0179,-0.0176,0.0037,0.0039,0.0042,0.023,0.0233,0.0236,0.0358,0.0359,0.0359,0.036,0.0565,0.0571,0.0577,0,0,0,0,0,0,0,0,0,0,0,0,0,-0.0044,-0.0175,0.0037,0.0124,0.0134,0.023,0.0233,0.0237,0.0358,0.0359,0.036,0.036,0.0563,0.0571,0.0578,0.0608,0,0,0.0601,0.0604,0,0,0,0,0,0,0,0,-0.0052,-0.0036,0.0109,0.0118,0.0129,0.0269,0.0233,0.0361,0.0358,0.0275,0.036,0.0361,0.0467,0.0482,0.052,0.0618,0.0627,0.0602,0.0606,0.061,0.0612,0,0,0,0,0,0,0,-0.0061,-0.0043,0.0116,0.0111,0.0123,0.0169,0.0189,0.0258,0.0366,0.0282,0.0291,0.0309,0.0473,0.0512,0.0525,0.063,0.0602,0.0608,0.0613,0.0616,0.0796,0.0796,0,0,0,0,0,0,-0.0092,-0.0052,0.011,0.0121,0.0037,0.0172,0.0195,0.0225,0.0365,0.0386,0.0308,0.0314,0.0499,0.0516,0.0533,0.0587,0.0609,0.0617,0.0621,0.0796,0.0796,0.0797,0,0,0,0,0,0,-0.0097,-0.0079,0.0102,0.0037,0.0063,0.0174,0.0208,0.0228,0.0271,0.0384,0.0407,0.0329,0.05,0.0522,0.0586,0.0596,0.062,0.0627,0.0796,0.0796,0.0796,0.0689,0,0,0,0,0,0,-0.0104,-0.0081,-0.0083,0.0035,0.0065,0.0153,0.0208,0.0232,0.028,0.0289,0.041,0.043,0.0502,0.0574,0.0594,0.0606,0.0633,0.0795,0.0796,0.0796,0.0692,0.0685,0.068,0,0,0,0,0,-0.0112,-0.0127,-0.0084,-0.0065,0.0064,0.0152,0.0172,0.0256,0.0279,0.0296,0.0369,0.0426,0.0592,0.058,0.0603,0.0618,0.0795,0.0796,0.0796,0.0695,0.0687,0.068,0,0,0,0,0,0,-0.0226,-0.0112,-0.0063,-0.0042,0.0049,0.0172,0.0179,0.0245,0.0318,0.0316,0.0424,0.045,0.0509,0.0576,0.056,0.0673,0.0706,0.0711,0.0621,0.0614,0.0608,0.0567,0.0639,0,0,0,0,0,-0.0251,-0.0229,-0.0102,-0.0087,-0.0052,0.0063,0.0103,0.0167,0.0251,0.0285,0.0371,0.0456,0.053,0.0578,0.0648,0.0708,0.0732,0.0736,0.073,0.0724,0.0707,0.0721,0.0713,0.0799,0.0799,0.0799,0,0,-0.029,-0.0229,-0.0214,-0.0111,-0.0042,0.0003,0.0089,0.0141,0.018,0.0293,0.0349,0.043,0.0537,0.0602,0.0636,0.0661,0.0717,0.0725,0.0719,0.0705,0.0721,0.0712,0.0704,0.0799,0.0799,0.0799,0,0,-0.0354,-0.0303,-0.0297,-0.0235,-0.014,-0.0063,-0.0052,0.0073,0.0125,0.0196,0.0281,0.0364,0.0481,0.0567,0.0623,0.0627,0.0673,0.0654,0.0605,0.0618,0.061,0.0603,0.0628,0.0625,0.0664,0.0663,0.0663,0,-0.0402,-0.0368,-0.0284,-0.0262,-0.0225,-0.0101,-0.0079,-0.001,0.012,0.0154,0.0195,0.0361,0.0467,0.0545,0.0562,0.0614,0.0617,0.062,0.0605,0.0599,0.0594,0.0622,0.0619,0.0658,0.0659,0.066,0.066,0,-0.0442,-0.0421,-0.0423,-0.0346,-0.03,-0.0267,-0.0157,-0.011,-0.0035,0.0049,0.0132,0.0267,0.037,0.0428,0.0506,0.0537,0.055,0.058,0.0611,0.0578,0.0611,0.061,0.0651,0.0653,0.0654,0.0656,0,0,-0.0506,-0.0456,-0.0452,-0.0436,-0.0342,-0.03,-0.0266,-0.0174,-0.0146,-0.0034,0.0009,0.0163,0.0234,0.0301,0.0411,0.045,0.0453,0.0495,0.0498,0.0497,0.0468,0.0532,0.0538,0.0456,0.0455,0.0454,0.0506,0,-0.0545,-0.0549,-0.05,-0.0491,-0.0476,-0.0385,-0.0354,-0.0273,-0.0186,-0.0118,0.0007,0.0094,0.0185,0.0247,0.029,0.0425,0.0443,0.0436,0.052,0.0523,0.0565,0.0537,0.0586,0.0639,0.0505,0.0505,0.0505,0,-0.0575,-0.0575,-0.0587,-0.0554,-0.0537,-0.0517,-0.0451,-0.0404,-0.0299,-0.0234,-0.0156,-0.0051,0.0061,0.0129,0.0269,0.0248,0.0333,0.042,0.0424,0.0516,0.0585,0.0654,0.0643,0.0755,0.0504,0.0504,0.0504,0,-0.0644,-0.0627,-0.0645,-0.0633,-0.0578,-0.0573,-0.0535,-0.0446,-0.0399,-0.0309,-0.0261,-0.0153,-0.0053,0.0025,0.024,0.0233,0.0377,0.0397,0.0518,0.0525,0.0603,0.0618,0.0692,0.0436,0.0436,0.0436,0.0436,0,-0.0693,-0.0702,-0.0684,-0.0692,-0.0708,-0.0646,-0.0636,-0.0581,-0.0495,-0.0415,-0.0328,-0.0235,-0.008,0.005,0.0181,0.0364,0.0327,0.0495,0.0535,0.0572,0.0582,0.0715,0.0755,0.0438,0.0438,0.0437,0.0437,0,-0.0754,-0.0743,-0.0761,-0.0741,-0.074,-0.0751,-0.0702,-0.0674,-0.0595,-0.0492,-0.0461,-0.0296,-0.0115,0.0041,0.0232,0.033,0.0559,0.0544,0.0589,0.0633,0.0829,0.0861,0.0959,0.1036,0.0654,0.0655,0.0657,0,-0.0781,-0.08,-0.0814,-0.083,-0.0824,-0.0829,-0.0815,-0.0738,-0.066,-0.0489,-0.0412,-0.025,-0.0044,0.022,0.0393,0.0583,0.0661,0.0717,0.072,0.0837,0.0901,0.0913,0.0971,0.0787,0.079,0.0792,0.0793,0,-0.0829,-0.0835,-0.0856,-0.0891,-0.0898,-0.0857,-0.08,-0.0738,-0.0582,-0.0442,-0.0168,-0.0012,0.0185,0.0444,0.0612,0.0718,0.0804,0.0763,0.0868,0.0991,0.1024,0.1119,0.0764,0.0811,0.0809,0.0808,0.0807,0.0806,-0.0854,-0.0889,-0.0909,-0.0919,-0.0897,-0.0759,-0.0673,-0.0536,-0.032,0.001,0.0107,0.043,0.0539,0.08,0.0898,0.1036,0.098,0.1095,0.1119,0.1116,0.1203,0.0892,0.0996,0.0995,0.0995,0.0994,0.0994,0,-0.0831,-0.0872,-0.0918,-0.0861,-0.0752,-0.0755,-0.0555,-0.0404,-0.0051,0.0209,0.0546,0.0951,0.1116,0.1164,0.1277,0.1389,0.1403,0.1429,0.1453,0.1491,0.121,0.1232,0.1412,0.1412,0.1411,0.1411,0.1411,0.1411,-0.082,-0.084,-0.0848,-0.0673,-0.0615,-0.0401,-0.0233,-0.0015,0.0217,0.0715,0.106,0.1319,0.1407,0.1533,0.1657,0.1682,0.1797,0.1768,0.1823,0.1629,0.1599,0.1571,0.1601,0.1856,0.1857,0.2111,0.2113,0.2115]}],[{"header":{"parameterUnit":"m.s-1","parameterCategory":2,"la1":30.2991,"la2":30.254,"lo1":-89.0895,"lo2":-89.0444,"dy":0.0017,"dx":0.0017,"nx":28,"ny":28,"refTime":"2023-10-18T09:00:00:Z","depth":"2","parameterNumber":2,"parameterNumberName":"U-component_of_CURRENTS"},"data":[0,0,0,0,0,0,0,0,0,0,0,0,0,0,0,0,0,0,0,0,0,0,0,0,0,0,0,0,0,0,0,0,0,0,0,0,0,0,0,0,0,0,0,0,0,0,0,0,0,0,0,0,0,0,0,0,0,0,-0.2349,-0.235,0,-0.2391,-0.2391,-0.2391,-0.2405,-0.2405,-0.2406,-0.2406,-0.2545,-0.2548,-0.2551,0,0,0,0,0,0,0,0,0,0,0,0,0,-0.2289,-0.2289,-0.2349,-0.235,-0.2351,-0.2391,-0.2391,-0.2391,-0.2405,-0.2405,-0.2406,-0.2406,-0.2543,-0.2548,-0.2552,0,0,0,0,0,0,0,0,0,0,0,0,0,-0.2317,-0.2289,-0.2349,-0.2366,-0.2368,-0.2391,-0.2391,-0.2391,-0.2405,-0.2405,-0.2406,-0.2406,-0.2542,-0.2547,-0.2552,-0.2579,0,0,-0.2568,-0.2571,0,0,0,0,0,0,0,0,-0.2315,-0.2319,-0.2362,-0.2365,-0.2367,-0.2396,-0.2421,-0.246,-0.2405,-0.2387,-0.2406,-0.2406,-0.2507,-0.2515,-0.2515,-0.2586,-0.2592,-0.2569,-0.2572,-0.2574,-0.2576,0,0,0,0,0,0,0,-0.2313,-0.2317,-0.2362,-0.2363,-0.2366,-0.2374,-0.2377,-0.2427,-0.2443,-0.2388,-0.2391,-0.2401,-0.2508,-0.251,-0.2519,-0.2594,-0.2569,-0.2574,-0.2577,-0.2579,-0.2704,-0.2704,0,0,0,0,0,0,-0.2316,-0.2315,-0.236,-0.2363,-0.2346,-0.2375,-0.2379,-0.2383,-0.2441,-0.245,-0.2401,-0.2402,-0.25,-0.2512,-0.2524,-0.2569,-0.2574,-0.2579,-0.2582,-0.2704,-0.2704,-0.2704,0,0,0,0,0,0,-0.2314,-0.2319,-0.2359,-0.2344,-0.235,-0.2376,-0.2381,-0.2384,-0.2401,-0.245,-0.246,-0.2416,-0.2501,-0.2516,-0.2588,-0.2574,-0.2582,-0.2587,-0.2703,-0.2704,-0.2704,-0.2653,0,0,0,0,0,0,-0.2312,-0.2318,-0.2327,-0.2344,-0.2351,-0.2377,-0.2381,-0.2385,-0.2408,-0.2409,-0.2466,-0.2478,-0.2502,-0.2579,-0.2593,-0.2581,-0.2591,-0.2703,-0.2703,-0.2704,-0.2655,-0.2652,-0.2649,0,0,0,0,0,-0.2309,-0.2326,-0.2327,-0.2333,-0.2361,-0.2378,-0.2381,-0.2398,-0.2408,-0.2414,-0.2463,-0.2477,-0.2589,-0.2585,-0.26,-0.259,-0.2703,-0.2703,-0.2704,-0.2656,-0.2652,-0.2649,0,0,0,0,0,0,-0.2302,-0.233,-0.2331,-0.2354,-0.2365,-0.2382,-0.2396,-0.2407,-0.2445,-0.246,-0.2499,-0.2515,-0.2559,-0.2594,-0.2588,-0.2626,-0.2641,-0.2644,-0.2599,-0.2596,-0.2593,-0.2542,-0.2595,0,0,0,0,0,-0.2305,-0.232,-0.2342,-0.2354,-0.2366,-0.2381,-0.2394,-0.2407,-0.2441,-0.2457,-0.2492,-0.2536,-0.2569,-0.2601,-0.2634,-0.2678,-0.2661,-0.2676,-0.2673,-0.267,-0.2639,-0.2611,-0.2601,-0.2705,-0.2705,-0.2705,0,0,-0.2298,-0.232,-0.2325,-0.2353,-0.2364,-0.2375,-0.2389,-0.2414,-0.2416,-0.2471,-0.2496,-0.2532,-0.2579,-0.2609,-0.2632,-0.2643,-0.2634,-0.2671,-0.2668,-0.2638,-0.261,-0.2599,-0.259,-0.2705,-0.2705,-0.2705,0,0,-0.2287,-0.2318,-0.2322,-0.234,-0.237,-0.2384,-0.2394,-0.2418,-0.2425,-0.2466,-0.2487,-0.251,-0.2588,-0.2587,-0.2605,-0.2612,-0.2615,-0.2638,-0.2591,-0.2565,-0.2555,-0.2546,-0.2512,-0.25,-0.2643,-0.2642,-0.2642,0,-0.2274,-0.2289,-0.2324,-0.2335,-0.235,-0.2387,-0.2391,-0.2404,-0.2443,-0.2449,-0.2473,-0.2526,-0.2558,-0.2567,-0.2558,-0.2598,-0.2592,-0.26,-0.2557,-0.2548,-0.254,-0.2507,-0.2495,-0.264,-0.264,-0.2641,-0.2641,0,-0.2259,-0.2279,-0.2289,-0.231,-0.2331,-0.2348,-0.2375,-0.2393,-0.2419,-0.2426,-0.2444,-0.2477,-0.2502,-0.2513,-0.254,-0.2501,-0.2518,-0.255,-0.2556,-0.2525,-0.2494,-0.2482,-0.2637,-0.2637,-0.2638,-0.2639,0,0,-0.2194,-0.2262,-0.2261,-0.2278,-0.2325,-0.234,-0.2355,-0.237,-0.2378,-0.24,-0.2393,-0.2412,-0.2422,-0.2439,-0.2465,-0.2434,-0.2365,-0.2466,-0.2466,-0.2414,-0.2304,-0.2229,-0.2209,-0.2401,-0.2399,-0.2397,-0.2306,0,-0.2161,-0.2184,-0.2224,-0.2241,-0.226,-0.2308,-0.2317,-0.2341,-0.2367,-0.2374,-0.2377,-0.2391,-0.24,-0.2417,-0.238,-0.2384,-0.2332,-0.2385,-0.2356,-0.2354,-0.2277,-0.2192,-0.2047,-0.1946,-0.2294,-0.2292,-0.2291,0,-0.2118,-0.215,-0.2164,-0.2225,-0.2235,-0.2246,-0.2283,-0.2298,-0.2319,-0.234,-0.234,-0.2361,-0.2322,-0.2338,-0.227,-0.2316,-0.2283,-0.227,-0.2268,-0.2197,-0.2255,-0.2035,-0.1911,-0.2271,-0.2273,-0.2274,-0.2276,0,-0.2056,-0.2104,-0.212,-0.2139,-0.2207,-0.2216,-0.2244,-0.2278,-0.2293,-0.231,-0.2325,-0.2303,-0.2293,-0.2252,-0.2217,-0.2252,-0.2135,-0.2191,-0.2077,-0.2074,-0.1937,-0.1923,-0.2095,-0.2095,-0.2095,-0.2095,-0.2096,0,-0.2013,-0.2023,-0.2094,-0.2106,-0.2117,-0.2179,-0.219,-0.2219,-0.2257,-0.2259,-0.2294,-0.228,-0.2269,-0.222,-0.219,-0.2078,-0.2109,-0.2019,-0.2025,-0.1917,-0.1904,-0.2186,-0.2198,-0.2092,-0.2093,-0.2093,-0.2094,0,-0.1938,-0.1991,-0.2007,-0.2072,-0.209,-0.2093,-0.2155,-0.2171,-0.2217,-0.2219,-0.2224,-0.2243,-0.2173,-0.214,-0.2066,-0.2027,-0.195,-0.19,-0.1766,-0.1755,-0.1916,-0.1927,-0.1762,-0.1758,-0.1755,-0.1752,-0.175,0,-0.1901,-0.1906,-0.1958,-0.1971,-0.1997,-0.2027,-0.2053,-0.2127,-0.2146,-0.2183,-0.2172,-0.2129,-0.2061,-0.1929,-0.1832,-0.1723,-0.1822,-0.1556,-0.1572,-0.1849,-0.1873,-0.1889,-0.1904,-0.1381,-0.1376,-0.1371,-0.1368,0,-0.1819,-0.1834,-0.1856,-0.187,-0.1897,-0.1917,-0.1956,-0.1969,-0.2045,-0.2058,-0.2035,-0.1988,-0.1857,-0.1666,-0.1532,-0.1467,-0.1568,-0.1466,-0.176,-0.1496,-0.1484,-0.1511,-0.1538,-0.1331,-0.1334,-0.1337,-0.1339,-0.1341,-0.1739,-0.1725,-0.1743,-0.1741,-0.1769,-0.1753,-0.1726,-0.1783,-0.1778,-0.1749,-0.1836,-0.1721,-0.1661,-0.1361,-0.1252,-0.1161,-0.1279,-0.1246,-0.1261,-0.128,-0.126,-0.1244,-0.1041,-0.1043,-0.1045,-0.1046,-0.1048,0,-0.162,-0.1615,-0.1614,-0.1594,-0.1552,-0.1609,-0.1618,-0.1569,-0.1508,-0.1528,-0.1497,-0.1323,-0.117,-0.1107,-0.0891,-0.0845,-0.086,-0.0826,-0.0857,-0.0892,-0.0925,-0.089,-0.0571,-0.057,-0.0569,-0.0567,0,0,-0.1559,-0.15,-0.1486,-0.1354,-0.1348,-0.1245,-0.1213,-0.1173,-0.115,-0.107,-0.103,-0.1122,-0.1092,-0.0861,-0.0776,-0.0634,-0.0765,-0.0596,-0.0975,-0.1047,-0.1079,-0.1155,-0.1139,0,0,0,0,0]},{"header":{"parameterUnit":"m.s-1","parameterCategory":2,"la1":30.2991,"la2":30.254,"lo1":-89.0895,"lo2":-89.0444,"dy":0.0017,"dx":0.0017,"nx":28,"ny":28,"refTime":"2023-10-18T09:00:00:Z","depth":"2","parameterNumber":3,"parameterNumberName":"V-component_of_CURRENTS"},"data":[0,0,0,0,0,0,0,0,0,0,0,0,0,0,0,0,0,0,0,0,0,0,0,0,0,0,0,0,0,0,0,0,0,0,0,0,0,0,0,0,0,0,0,0,0,0,0,0,0,0,0,0,0,0,0,0,0,0,-0.0391,-0.0391,0,-0.0343,-0.0343,-0.0342,-0.0289,-0.0288,-0.0287,-0.0286,-0.009,-0.0086,-0.0082,0,0,0,0,0,0,0,0,0,0,0,0,0,-0.0424,-0.0424,-0.0392,-0.0391,-0.039,-0.0343,-0.0343,-0.0342,-0.029,-0.0288,-0.0287,-0.0286,-0.0092,-0.0087,-0.0082,0,0,0,0,0,0,0,0,0,0,0,0,0,-0.04,-0.0424,-0.0392,-0.0355,-0.0351,-0.0343,-0.0343,-0.0342,-0.029,-0.0288,-0.0287,-0.0285,-0.0093,-0.0087,-0.0081,-0.0074,0,0,-0.0062,-0.0059,0,0,0,0,0,0,0,0,-0.0401,-0.0399,-0.0362,-0.0358,-0.0353,-0.0317,-0.0282,-0.0244,-0.029,-0.0317,-0.0286,-0.0284,-0.0151,-0.014,-0.0142,-0.0065,-0.0057,-0.0061,-0.0057,-0.0054,-0.0053,0,0,0,0,0,0,0,-0.0403,-0.0401,-0.0376,-0.0361,-0.0355,-0.0336,-0.0331,-0.0275,-0.0244,-0.0314,-0.031,-0.0299,-0.0148,-0.0148,-0.0136,-0.0054,-0.0061,-0.0056,-0.0052,-0.0049,0.0097,0.0097,0,0,0,0,0,0,-0.0405,-0.0403,-0.0377,-0.0374,-0.037,-0.0336,-0.0331,-0.0333,-0.0247,-0.0233,-0.0301,-0.0297,-0.016,-0.0144,-0.0129,-0.0064,-0.0054,-0.0049,-0.0045,0.0097,0.0097,0.0097,0,0,0,0,0,0,-0.0406,-0.0403,-0.0379,-0.0383,-0.0378,-0.0337,-0.034,-0.0333,-0.0321,-0.0238,-0.0221,-0.0293,-0.0158,-0.0138,-0.0069,-0.0057,-0.0046,-0.004,0.0097,0.0097,0.0097,0.0034,0,0,0,0,0,0,-0.0407,-0.0405,-0.0406,-0.0384,-0.0378,-0.0375,-0.0341,-0.0333,-0.0316,-0.031,-0.0226,-0.0207,-0.0155,-0.0079,-0.0062,-0.0048,-0.0035,0.0096,0.0097,0.0097,0.0036,0.0032,0.0028,0,0,0,0,0,-0.0409,-0.0417,-0.0407,-0.0403,-0.0383,-0.0375,-0.0371,-0.0338,-0.0317,-0.032,-0.0255,-0.0209,-0.0066,-0.0074,-0.0055,-0.0038,0.0096,0.0097,0.0097,0.0037,0.0033,0.0028,0,0,0,0,0,0,-0.0438,-0.0412,-0.04,-0.0402,-0.0389,-0.0365,-0.0361,-0.0341,-0.0298,-0.0281,-0.0206,-0.0183,-0.0125,-0.0074,-0.0085,0.0003,0.0022,0.0026,-0.0029,-0.0033,-0.0037,-0.0048,-0.003,0,0,0,0,0,-0.0446,-0.0445,-0.042,-0.0425,-0.0417,-0.0391,-0.0382,-0.0361,-0.032,-0.0302,-0.0247,-0.0177,-0.0115,-0.0068,-0.0017,0.0038,0.0075,0.006,0.0056,0.0053,0.0056,0.0107,0.0108,0.0097,0.0097,0.0097,0,0,-0.0461,-0.0446,-0.0446,-0.0431,-0.0418,-0.0408,-0.0382,-0.0371,-0.0355,-0.0283,-0.0245,-0.0194,-0.0107,-0.0054,-0.0021,-0.0002,0.0074,0.0053,0.0049,0.0055,0.0107,0.0108,0.0109,0.0098,0.0098,0.0098,0,0,-0.0491,-0.0477,-0.0482,-0.0469,-0.0445,-0.0424,-0.0421,-0.0396,-0.0373,-0.0334,-0.0277,-0.0222,-0.0133,-0.0074,-0.0027,-0.0018,0.0041,0.0002,-0.0007,0.0042,0.0043,0.0045,0.0084,0.009,0.0014,0.0014,0.0014,0,-0.051,-0.0511,-0.0485,-0.0482,-0.047,-0.0431,-0.0432,-0.0406,-0.0363,-0.0338,-0.0324,-0.0206,-0.0142,-0.0057,-0.0054,-0.0026,0.0009,0.0002,0.0036,0.0039,0.0041,0.0082,0.0089,0.0011,0.0011,0.0012,0.0012,0,-0.0538,-0.0534,-0.0537,-0.0516,-0.0501,-0.0499,-0.0455,-0.0436,-0.0403,-0.0369,-0.0304,-0.0233,-0.0157,-0.0131,-0.0082,-0.0025,-0.0006,0.0011,0.0043,0.0038,0.0081,0.009,0.0007,0.0008,0.0009,0.001,0,0,-0.0593,-0.0564,-0.0564,-0.056,-0.0518,-0.0514,-0.0478,-0.0438,-0.041,-0.0363,-0.0325,-0.0231,-0.0199,-0.0145,-0.0086,-0.0036,0.0006,-0.0003,0.0001,0.0029,0.0111,0.0135,0.0147,0.0031,0.0033,0.0034,0.013,0,-0.0625,-0.0637,-0.0601,-0.0602,-0.0604,-0.0548,-0.0521,-0.0473,-0.0424,-0.0379,-0.0295,-0.024,-0.0198,-0.0165,-0.0109,-0.0022,0.0027,-0.0022,0.012,0.0124,0.0139,0.0157,0.0141,0.0227,0.0138,0.014,0.0141,0,-0.0658,-0.0662,-0.0676,-0.0646,-0.064,-0.0628,-0.0576,-0.0546,-0.0457,-0.0417,-0.0342,-0.0278,-0.0185,-0.0165,-0.0018,-0.005,0.0024,0.0086,0.0091,0.0143,0.0163,0.0221,0.0246,0.0156,0.0154,0.0153,0.0152,0,-0.0718,-0.0707,-0.0724,-0.0716,-0.0676,-0.0665,-0.0639,-0.0564,-0.0531,-0.0443,-0.0409,-0.0294,-0.0234,-0.0129,0.0005,-0.0004,0.0159,0.0162,0.0252,0.0255,0.0285,0.0288,0.0256,0.0256,0.0256,0.0256,0.0255,0,-0.0764,-0.0772,-0.0757,-0.0766,-0.0779,-0.0726,-0.0713,-0.0665,-0.0588,-0.0541,-0.044,-0.0372,-0.0221,-0.0103,0.0003,0.0161,0.0161,0.0258,0.0287,0.0262,0.0262,0.0236,0.0233,0.0259,0.0258,0.0258,0.0257,0,-0.0819,-0.081,-0.0827,-0.0809,-0.0808,-0.0818,-0.0774,-0.0757,-0.0676,-0.0613,-0.0585,-0.0421,-0.0257,-0.0106,0.008,0.0163,0.0303,0.0356,0.0313,0.0336,0.0362,0.0354,0.0461,0.0463,0.0465,0.0466,0.0467,0,-0.0845,-0.0862,-0.0874,-0.0899,-0.0895,-0.0898,-0.0897,-0.082,-0.0788,-0.0631,-0.0603,-0.0422,-0.0283,-0.0006,0.0187,0.038,0.0367,0.0453,0.0432,0.0369,0.0386,0.0376,0.0366,0.0445,0.0446,0.0447,0.0447,0,-0.089,-0.0895,-0.0915,-0.0975,-0.0994,-0.1013,-0.0998,-0.0987,-0.0874,-0.0802,-0.0659,-0.053,-0.0206,0.0036,0.0294,0.0395,0.0418,0.0472,0.044,0.039,0.0361,0.0375,0.0365,0.0453,0.0453,0.0452,0.0452,0.0452,-0.0919,-0.0955,-0.0993,-0.1049,-0.1085,-0.113,-0.1129,-0.1094,-0.105,-0.0905,-0.0758,-0.053,-0.0234,0.0146,0.0342,0.052,0.0511,0.0529,0.0524,0.0519,0.0494,0.0469,0.0577,0.0577,0.0577,0.0577,0.0577,0,-0.0966,-0.1007,-0.1066,-0.1135,-0.1189,-0.1188,-0.119,-0.115,-0.1102,-0.0941,-0.0795,-0.0484,-0.019,0.0124,0.0433,0.0594,0.057,0.0593,0.054,0.0534,0.0529,0.0502,0.0588,0.0588,0.0588,0.0589,0,0,-0.0993,-0.1067,-0.1109,-0.1218,-0.1258,-0.1286,-0.1284,-0.1212,-0.1084,-0.0928,-0.0743,-0.0543,-0.0138,0.0057,0.0289,0.0464,0.044,0.046,0.0435,0.034,0.0333,0.048,0.043,0,0,0,0,0]}],[{"header":{"parameterUnit":"m.s-1","parameterCategory":2,"la1":30.2991,"la2":30.254,"lo1":-89.0895,"lo2":-89.0444,"dy":0.0017,"dx":0.0017,"nx":28,"ny":28,"refTime":"2023-10-18T09:00:00:Z","depth":"4","parameterNumber":2,"parameterNumberName":"U-component_of_CURRENTS"},"data":[0,0,0,0,0,0,0,0,0,0,0,0,0,0,0,0,0,0,0,0,0,0,0,0,0,0,0,0,0,0,0,0,0,0,0,0,0,0,0,0,0,0,0,0,0,0,0,0,0,0,0,0,0,0,0,0,0,0,-0.1572,-0.1572,0,-0.1604,-0.1605,-0.1605,-0.164,-0.164,-0.164,-0.1641,-0.1697,-0.1698,-0.1699,0,0,0,0,0,0,0,0,0,0,0,0,0,-0.1556,-0.1557,-0.1572,-0.1572,-0.1572,-0.1604,-0.1605,-0.1605,-0.164,-0.164,-0.164,-0.1641,-0.1696,-0.1698,-0.1699,0,0,0,0,0,0,0,0,0,0,0,0,0,-0.1574,-0.1557,-0.1572,-0.1593,-0.1595,-0.1604,-0.1605,-0.1605,-0.1639,-0.164,-0.1641,-0.1641,-0.1696,-0.1698,-0.1699,-0.1698,0,0,-0.1704,-0.1705,0,0,0,0,0,0,0,0,-0.1573,-0.1575,-0.1589,-0.1591,-0.1594,-0.1618,-0.162,-0.1637,-0.1639,-0.1624,-0.1641,-0.1641,-0.1671,-0.1675,-0.1681,-0.17,-0.1703,-0.1705,-0.1706,-0.1706,-0.1707,0,0,0,0,0,0,0,-0.1572,-0.1574,-0.1586,-0.159,-0.1592,-0.1606,-0.1609,-0.1623,-0.1645,-0.1625,-0.1627,-0.1629,-0.1673,-0.1679,-0.1683,-0.1704,-0.1705,-0.1706,-0.1707,-0.1708,-0.1775,-0.1775,0,0,0,0,0,0,-0.1564,-0.1572,-0.1585,-0.1587,-0.1584,-0.1606,-0.1609,-0.161,-0.1644,-0.165,-0.1629,-0.1631,-0.1676,-0.1681,-0.1685,-0.1729,-0.1706,-0.1708,-0.1709,-0.1774,-0.1775,-0.1776,0,0,0,0,0,0,-0.1564,-0.1565,-0.1583,-0.158,-0.1583,-0.1605,-0.1606,-0.161,-0.1643,-0.1647,-0.1653,-0.166,-0.1677,-0.1682,-0.1715,-0.173,-0.1709,-0.171,-0.1773,-0.1774,-0.1775,-0.1789,0,0,0,0,0,0,-0.1563,-0.1565,-0.1585,-0.1579,-0.1583,-0.1602,-0.1605,-0.1611,-0.1641,-0.1645,-0.1675,-0.1679,-0.1678,-0.1712,-0.1716,-0.1732,-0.1712,-0.1772,-0.1773,-0.1775,-0.1788,-0.1791,-0.1793,0,0,0,0,0,-0.1563,-0.1585,-0.1585,-0.1588,-0.1602,-0.1603,-0.1607,-0.1625,-0.1642,-0.1658,-0.1678,-0.1679,-0.1724,-0.1714,-0.1719,-0.1735,-0.1771,-0.1773,-0.1775,-0.1787,-0.179,-0.1793,0,0,0,0,0,0,-0.1592,-0.159,-0.1591,-0.1613,-0.1612,-0.1609,-0.1635,-0.1641,-0.167,-0.1687,-0.169,-0.1696,-0.1729,-0.1732,-0.1721,-0.1759,-0.1748,-0.1751,-0.1755,-0.1759,-0.1761,-0.176,-0.1713,0,0,0,0,0,-0.1604,-0.1621,-0.1611,-0.163,-0.1635,-0.1639,-0.1652,-0.166,-0.1673,-0.1688,-0.1703,-0.1723,-0.1735,-0.1749,-0.1762,-0.1785,-0.1776,-0.1798,-0.1801,-0.1803,-0.1806,-0.1813,-0.1816,-0.1781,-0.1781,-0.1781,0,0,-0.1618,-0.1622,-0.1631,-0.1638,-0.1645,-0.1653,-0.165,-0.1674,-0.1687,-0.1689,-0.1728,-0.1738,-0.1745,-0.1767,-0.1782,-0.1774,-0.1805,-0.1805,-0.1807,-0.1808,-0.1815,-0.1818,-0.1821,-0.1782,-0.1782,-0.1782,0,0,-0.1635,-0.166,-0.1669,-0.1677,-0.169,-0.1691,-0.1702,-0.1709,-0.1725,-0.1752,-0.1755,-0.177,-0.1801,-0.1795,-0.1799,-0.1826,-0.1821,-0.184,-0.1852,-0.1859,-0.1861,-0.1864,-0.1838,-0.1838,-0.1839,-0.1839,-0.1839,0,-0.1648,-0.1659,-0.1673,-0.1683,-0.1697,-0.1709,-0.1718,-0.1733,-0.1751,-0.1766,-0.1772,-0.181,-0.1809,-0.1824,-0.1826,-0.1831,-0.183,-0.1837,-0.1861,-0.1864,-0.1866,-0.1839,-0.1839,-0.184,-0.184,-0.184,-0.184,0,-0.1651,-0.168,-0.1692,-0.1705,-0.1724,-0.1741,-0.1752,-0.178,-0.1804,-0.181,-0.1845,-0.1843,-0.1861,-0.1861,-0.185,-0.1866,-0.1858,-0.1864,-0.185,-0.187,-0.1841,-0.184,-0.1842,-0.1841,-0.1841,-0.1841,0,0,-0.1613,-0.1678,-0.1682,-0.1704,-0.1741,-0.175,-0.1789,-0.1809,-0.1836,-0.186,-0.1884,-0.1892,-0.1898,-0.1901,-0.1892,-0.1889,-0.1883,-0.1885,-0.1885,-0.1854,-0.1884,-0.1746,-0.1732,-0.1904,-0.1905,-0.1905,-0.185,0,-0.1601,-0.1635,-0.1671,-0.1709,-0.1726,-0.1771,-0.1801,-0.1834,-0.1863,-0.1892,-0.19,-0.1922,-0.1912,-0.192,-0.1919,-0.1896,-0.1887,-0.1896,-0.1875,-0.1873,-0.1744,-0.1728,-0.1907,-0.185,-0.185,-0.1849,-0.1849,0,-0.1569,-0.1605,-0.1644,-0.1717,-0.1729,-0.176,-0.1821,-0.1849,-0.1898,-0.1923,-0.1954,-0.1964,-0.1962,-0.1954,-0.1932,-0.1946,-0.1917,-0.1895,-0.1893,-0.176,-0.1734,-0.1832,-0.1848,-0.1848,-0.1848,-0.1849,-0.1849,0,-0.1512,-0.1579,-0.1618,-0.1642,-0.1723,-0.176,-0.1802,-0.1861,-0.1887,-0.1942,-0.1962,-0.1985,-0.198,-0.1976,-0.1922,-0.194,-0.1885,-0.1904,-0.1751,-0.1741,-0.1878,-0.1876,-0.189,-0.189,-0.189,-0.189,-0.189,0,-0.1468,-0.1502,-0.1604,-0.1624,-0.167,-0.1742,-0.179,-0.1837,-0.1899,-0.1909,-0.1971,-0.1963,-0.1989,-0.1959,-0.1929,-0.1815,-0.189,-0.1738,-0.1716,-0.1882,-0.1882,-0.1876,-0.1875,-0.1888,-0.1889,-0.1889,-0.1889,0,-0.1394,-0.1464,-0.1512,-0.1613,-0.1646,-0.1678,-0.1772,-0.1799,-0.1874,-0.1887,-0.1903,-0.1943,-0.1891,-0.1883,-0.1844,-0.1787,-0.1718,-0.1662,-0.181,-0.1799,-0.1572,-0.1573,-0.1494,-0.1488,-0.1484,-0.148,-0.1477,0,-0.1355,-0.1377,-0.1484,-0.1514,-0.1564,-0.1631,-0.1669,-0.1767,-0.1784,-0.1843,-0.1824,-0.1816,-0.1814,-0.1639,-0.1664,-0.1587,-0.1571,-0.1537,-0.1579,-0.1544,-0.1531,-0.1539,-0.1546,-0.147,-0.1469,-0.1467,-0.1466,0,-0.1278,-0.133,-0.1374,-0.1421,-0.1473,-0.1513,-0.1571,-0.1573,-0.1658,-0.1753,-0.1683,-0.1644,-0.1572,-0.153,-0.1465,-0.1424,-0.1567,-0.149,-0.15,-0.154,-0.1514,-0.1507,-0.1519,-0.145,-0.1453,-0.1454,-0.1455,0,-0.1218,-0.1224,-0.1277,-0.1302,-0.1357,-0.1344,-0.1408,-0.1415,-0.1444,-0.1527,-0.1495,-0.1491,-0.1538,-0.1442,-0.139,-0.1325,-0.1319,-0.1299,-0.1319,-0.1337,-0.1311,-0.1256,-0.1078,0,0,0,0,0,-0.1142,-0.1127,-0.1148,-0.1159,-0.1203,-0.122,-0.1307,-0.1376,-0.1471,-0.1378,-0.1431,-0.1358,-0.1278,-0.1294,-0.1188,-0.1314,-0.132,-0.119,-0.1308,-0.1363,-0.1381,-0.1365,0,0,0,0,0,0,-0.109,-0.1105,-0.1097,-0.1011,-0.0994,-0.1014,-0.106,-0.1142,-0.1105,-0.1216,-0.1175,-0.127,-0.1207,-0.1288,-0.1151,-0.1154,-0.1201,-0.1213,-0.1209,-0.1352,-0.1369,-0.1384,-0.1373,0,0,0,0,0]},{"header":{"parameterUnit":"m.s-1","parameterCategory":2,"la1":30.2991,"la2":30.254,"lo1":-89.0895,"lo2":-89.0444,"dy":0.0017,"dx":0.0017,"nx":28,"ny":28,"refTime":"2023-10-18T09:00:00:Z","depth":"4","parameterNumber":3,"parameterNumberName":"V-component_of_CURRENTS"},"data":[0,0,0,0,0,0,0,0,0,0,0,0,0,0,0,0,0,0,0,0,0,0,0,0,0,0,0,0,0,0,0,0,0,0,0,0,0,0,0,0,0,0,0,0,0,0,0,0,0,0,0,0,0,0,0,0,0,0,-0.0347,-0.0347,0,-0.034,-0.034,-0.034,-0.0324,-0.0323,-0.0323,-0.0323,-0.0284,-0.0283,-0.0283,0,0,0,0,0,0,0,0,0,0,0,0,0,-0.0337,-0.0338,-0.0347,-0.0347,-0.0347,-0.034,-0.034,-0.034,-0.0324,-0.0323,-0.0323,-0.0322,-0.0284,-0.0284,-0.0283,0,0,0,0,0,0,0,0,0,0,0,0,0,-0.0338,-0.0338,-0.0347,-0.0337,-0.0336,-0.034,-0.034,-0.034,-0.0324,-0.0323,-0.0323,-0.0322,-0.0284,-0.0284,-0.0283,-0.0291,0,0,-0.028,-0.028,0,0,0,0,0,0,0,0,-0.0338,-0.0339,-0.0338,-0.0337,-0.0336,-0.0331,-0.0323,-0.0322,-0.0324,-0.033,-0.0323,-0.0322,-0.0297,-0.0295,-0.0297,-0.0289,-0.0288,-0.028,-0.0279,-0.0279,-0.0279,0,0,0,0,0,0,0,-0.0338,-0.0339,-0.0346,-0.0338,-0.0337,-0.0329,-0.0329,-0.0323,-0.0318,-0.0329,-0.0328,-0.0325,-0.0296,-0.0298,-0.0296,-0.0287,-0.028,-0.0279,-0.0279,-0.0278,-0.0273,-0.0274,0,0,0,0,0,0,-0.0338,-0.0339,-0.0346,-0.0345,-0.0334,-0.033,-0.033,-0.0334,-0.0318,-0.0315,-0.0326,-0.0324,-0.03,-0.0297,-0.0295,-0.0291,-0.0279,-0.0278,-0.0278,-0.0273,-0.0273,-0.0274,0,0,0,0,0,0,-0.0338,-0.0339,-0.0346,-0.034,-0.0341,-0.0331,-0.0336,-0.0335,-0.0338,-0.0316,-0.0312,-0.033,-0.0299,-0.0296,-0.0289,-0.029,-0.0278,-0.0277,-0.0272,-0.0273,-0.0274,-0.0291,0,0,0,0,0,0,-0.0338,-0.0339,-0.0345,-0.0341,-0.0341,-0.0357,-0.0337,-0.0335,-0.0337,-0.0335,-0.0319,-0.0314,-0.0298,-0.0291,-0.0288,-0.0288,-0.0276,-0.0272,-0.0273,-0.0273,-0.029,-0.0293,-0.0295,0,0,0,0,0,-0.0338,-0.0349,-0.0346,-0.0347,-0.0349,-0.0358,-0.0358,-0.0349,-0.0338,-0.0348,-0.033,-0.0315,-0.0294,-0.0291,-0.0288,-0.0287,-0.0272,-0.0272,-0.0273,-0.0289,-0.0292,-0.0294,0,0,0,0,0,0,-0.0353,-0.0348,-0.0345,-0.0356,-0.036,-0.0355,-0.0361,-0.0354,-0.035,-0.0343,-0.0321,-0.0316,-0.0312,-0.0301,-0.0298,-0.0289,-0.028,-0.028,-0.0293,-0.0296,-0.0298,-0.028,-0.0276,0,0,0,0,0,-0.0359,-0.0366,-0.0362,-0.0375,-0.0375,-0.037,-0.0372,-0.0366,-0.0359,-0.0357,-0.0346,-0.033,-0.0315,-0.0306,-0.0299,-0.0294,-0.0254,-0.0292,-0.0294,-0.0296,-0.0281,-0.0217,-0.0211,-0.0277,-0.0277,-0.0277,0,0,-0.037,-0.0368,-0.0373,-0.0378,-0.0378,-0.0382,-0.037,-0.0377,-0.0375,-0.0353,-0.0352,-0.0341,-0.0318,-0.0312,-0.0308,-0.03,-0.0261,-0.0297,-0.0299,-0.0282,-0.0217,-0.0211,-0.0205,-0.0277,-0.0277,-0.0277,0,0,-0.0393,-0.0393,-0.0404,-0.0405,-0.0405,-0.0399,-0.0402,-0.0401,-0.0396,-0.0397,-0.0375,-0.0359,-0.0352,-0.0325,-0.0311,-0.032,-0.0278,-0.0327,-0.0316,-0.0255,-0.0248,-0.0242,-0.0196,-0.0186,-0.0322,-0.0322,-0.0322,0,-0.0409,-0.0418,-0.0411,-0.0417,-0.0417,-0.0406,-0.0415,-0.0409,-0.0407,-0.0394,-0.04,-0.0362,-0.0352,-0.0311,-0.0318,-0.0322,-0.0284,-0.0307,-0.0255,-0.0248,-0.0241,-0.0195,-0.0183,-0.0323,-0.0323,-0.0323,-0.0323,0,-0.0434,-0.0441,-0.0448,-0.0448,-0.0447,-0.0457,-0.0442,-0.044,-0.0431,-0.0415,-0.039,-0.0372,-0.0341,-0.0343,-0.0333,-0.0283,-0.0273,-0.0268,-0.0244,-0.0235,-0.0189,-0.0175,-0.0325,-0.0324,-0.0324,-0.0324,0,0,-0.0473,-0.0469,-0.0472,-0.0474,-0.0463,-0.0469,-0.0455,-0.0438,-0.0421,-0.0409,-0.038,-0.0357,-0.0336,-0.0317,-0.0301,-0.0252,-0.0187,-0.0241,-0.0237,-0.0187,-0.0055,-0.0085,-0.0073,-0.0168,-0.0166,-0.0164,-0.0047,0,-0.0499,-0.052,-0.0502,-0.0516,-0.0525,-0.0497,-0.0486,-0.0462,-0.0438,-0.041,-0.0361,-0.0338,-0.0327,-0.0317,-0.0261,-0.0211,-0.0151,-0.0219,-0.0078,-0.0074,-0.0094,-0.0059,-0.0156,-0.0037,-0.0034,-0.0032,-0.003,0,-0.0527,-0.0537,-0.0559,-0.0548,-0.0548,-0.055,-0.0521,-0.0509,-0.0447,-0.0424,-0.0367,-0.0331,-0.0261,-0.0261,-0.0128,-0.0171,-0.0108,-0.0063,-0.0057,-0.0064,-0.0079,-0.0045,-0.0006,-0.0008,-0.001,-0.0011,-0.0013,0,-0.0563,-0.0571,-0.0593,-0.0593,-0.0579,-0.0578,-0.0568,-0.0518,-0.05,-0.0432,-0.0407,-0.0309,-0.0272,-0.0168,-0.0081,-0.0096,0.0065,0.0057,0.01,0.0098,0.0098,0.009,0.0174,0.0174,0.0174,0.0174,0.0173,0,-0.0591,-0.0608,-0.0618,-0.063,-0.0651,-0.0621,-0.062,-0.0589,-0.0534,-0.0505,-0.0422,-0.0373,-0.0245,-0.0144,-0.0059,0.0059,0.0092,0.012,0.0136,0.0083,0.0072,0.0107,0.0097,0.0178,0.0177,0.0176,0.0175,0,-0.062,-0.0629,-0.0656,-0.0663,-0.0671,-0.0687,-0.0672,-0.0663,-0.0604,-0.0562,-0.054,-0.0408,-0.0275,-0.0146,0.002,0.0074,0.0191,0.0228,0.0161,0.0168,0.018,0.0168,0.0296,0.0296,0.0296,0.0297,0.0297,0,-0.0633,-0.0653,-0.0694,-0.0725,-0.0735,-0.0753,-0.0764,-0.0713,-0.0696,-0.0583,-0.0564,-0.0419,-0.0326,-0.0107,0.0029,0.021,0.0224,0.0278,0.0237,0.0195,0.0198,0.0185,0.0173,0.0297,0.0297,0.0297,0.0297,0,-0.0654,-0.0677,-0.0704,-0.0776,-0.0811,-0.0838,-0.0847,-0.0834,-0.0761,-0.0702,-0.0578,-0.0442,-0.0286,-0.0111,0.003,0.0156,0.0237,0.028,0.028,0.0242,0.0197,0.0197,0.0185,0.0297,0.0297,0.0297,0.0297,0,-0.0672,-0.0706,-0.0758,-0.0815,-0.0873,-0.0915,-0.0907,-0.087,-0.0833,-0.0699,-0.0653,-0.0462,-0.0334,-0.0136,-0.0004,0.0115,0.0138,0.015,0.0157,0.0158,0.0072,-0.0008,0.0062,0,0,0,0,0,-0.0684,-0.0732,-0.0793,-0.0857,-0.0916,-0.0946,-0.0958,-0.0933,-0.0857,-0.0785,-0.0715,-0.0564,-0.033,-0.0208,-0.0095,-0.0019,0.0141,0.0114,0.0153,0.03,0.0299,0.0218,0,0,0,0,0,0,-0.0698,-0.0761,-0.0797,-0.0885,-0.093,-0.0987,-0.0999,-0.0948,-0.0895,-0.0797,-0.0669,-0.0556,-0.0328,-0.0393,-0.0095,-0.0052,-0.002,0.0244,0.0245,0.03,0.0299,0.0299,0.0215,0,0,0,0,0]}]]